RUK82GR LATI-EGPH

Flight info

Callsign RUK82GR
Flight time 3h 15m
Altitude 36000
Route INLOT2W INLOT DCT RETRA DCT GORPA DCT KFT DCT SIMBA DCT MOOCE L604 MAPOX DCT SPY L602 EMLON DCT OTR L602 ERKIT DCT AGPED AGPED1E
Aircraft B738/M-SDE2E3FGHIRWXY/LB1

Departure

Time 2026-05-05 08:09
Airport Tirana International Airport Mother Teresa (LATI)

Arrival

Time 2026-05-05 11:25
Airport Edinburgh Airport (EGPH)
Time Latitude Longitude Altitude Speed Heading
2026-05-05 07:52 41.41949 19.71517 122 ft 0 kts 264°
2026-05-05 08:01 41.41950 19.71535 121 ft 3 kts 263°
2026-05-05 08:01 41.41955 19.71564 119 ft 4 kts 229°
2026-05-05 08:01 41.41976 19.71576 117 ft 4 kts 176°
2026-05-05 08:02 41.41989 19.71575 122 ft 1 kts 174°
2026-05-05 08:02 41.41990 19.71575 122 ft 0 kts 174°
2026-05-05 08:03 41.41991 19.71575 122 ft 0 kts 174°
2026-05-05 08:04 41.41984 19.71576 122 ft 4 kts 174°
2026-05-05 08:04 41.41921 19.71584 122 ft 14 kts 174°
2026-05-05 08:04 41.41799 19.71601 120 ft 21 kts 174°
2026-05-05 08:05 41.41658 19.71621 125 ft 20 kts 174°
2026-05-05 08:05 41.41519 19.71641 124 ft 20 kts 174°
2026-05-05 08:05 41.41383 19.71660 122 ft 19 kts 174°
2026-05-05 08:05 41.41253 19.71678 124 ft 19 kts 174°
2026-05-05 08:06 41.41126 19.71695 128 ft 18 kts 175°
2026-05-05 08:06 41.41004 19.71710 130 ft 17 kts 174°
2026-05-05 08:06 41.40887 19.71732 128 ft 17 kts 170°
2026-05-05 08:06 41.40772 19.71758 131 ft 17 kts 172°
2026-05-05 08:07 41.40645 19.71775 128 ft 19 kts 174°
2026-05-05 08:07 41.40516 19.71792 128 ft 18 kts 174°
2026-05-05 08:07 41.40394 19.71823 131 ft 18 kts 150°
2026-05-05 08:07 41.40296 19.71916 132 ft 17 kts 144°
2026-05-05 08:08 41.40240 19.72041 132 ft 16 kts 88°
2026-05-05 08:08 41.40258 19.72187 132 ft 16 kts 60°
2026-05-05 08:08 41.40369 19.72203 128 ft 26 kts 354°
2026-05-05 08:08 41.40763 19.72150 133 ft 87 kts 354°
2026-05-05 08:09 41.41553 19.72044 125 ft 139 kts 354°
2026-05-05 08:09 41.42589 19.71883 420 ft 149 kts 351°
2026-05-05 08:09 41.43604 19.71645 956 ft 150 kts 350°
2026-05-05 08:09 41.44713 19.71363 1157 ft 175 kts 353°
2026-05-05 08:10 41.46024 19.71250 1441 ft 202 kts 358°
2026-05-05 08:10 41.47506 19.71165 1669 ft 224 kts 357°
2026-05-05 08:10 41.49110 19.71050 2042 ft 236 kts 357°
2026-05-05 08:10 41.50818 19.70899 2328 ft 255 kts 356°
2026-05-05 08:11 41.52617 19.70712 2952 ft 262 kts 355°
2026-05-05 08:11 41.54439 19.70511 3761 ft 264 kts 355°
2026-05-05 08:11 41.56278 19.70301 4493 ft 268 kts 355°
2026-05-05 08:11 41.58147 19.70081 5245 ft 271 kts 353°
2026-05-05 08:12 41.59964 19.69388 5928 ft 275 kts 335°
2026-05-05 08:12 41.61691 19.68257 6687 ft 277 kts 333°
2026-05-05 08:12 41.63423 19.67102 7409 ft 279 kts 333°
2026-05-05 08:12 41.65176 19.65948 8108 ft 283 kts 334°
2026-05-05 08:13 41.66958 19.64795 8794 ft 286 kts 334°
2026-05-05 08:13 41.68764 19.63641 9481 ft 289 kts 334°
2026-05-05 08:13 41.70590 19.62484 10148 ft 292 kts 334°
2026-05-05 08:13 41.72472 19.61300 10493 ft 309 kts 334°
2026-05-05 08:14 41.74477 19.60040 10673 ft 328 kts 334°
2026-05-05 08:14 41.76604 19.58707 10929 ft 344 kts 335°
2026-05-05 08:14 41.78795 19.57337 11493 ft 350 kts 335°
2026-05-05 08:14 41.80998 19.55960 12235 ft 350 kts 336°
2026-05-05 08:15 41.83215 19.54573 12839 ft 355 kts 336°
2026-05-05 08:15 41.85467 19.53166 13470 ft 358 kts 336°
2026-05-05 08:15 41.87729 19.51750 14202 ft 360 kts 336°
2026-05-05 08:15 41.90005 19.50322 14902 ft 362 kts 336°
2026-05-05 08:16 41.92290 19.48888 15616 ft 363 kts 336°
2026-05-05 08:16 41.94592 19.47443 16268 ft 367 kts 336°
2026-05-05 08:16 41.96879 19.46008 16907 ft 369 kts 336°
2026-05-05 08:16 41.99231 19.44615 17540 ft 371 kts 339°
2026-05-05 08:17 42.01663 19.43424 18178 ft 373 kts 341°
2026-05-05 08:17 42.04132 19.42292 18692 ft 378 kts 342°
2026-05-05 08:17 42.06635 19.41153 19249 ft 381 kts 341°
2026-05-05 08:17 42.09144 19.39993 19902 ft 382 kts 341°
2026-05-05 08:18 42.11661 19.38811 20430 ft 385 kts 341°
2026-05-05 08:18 42.14194 19.37609 20950 ft 387 kts 340°
2026-05-05 08:18 42.16744 19.36395 21464 ft 390 kts 340°
2026-05-05 08:18 42.19307 19.35171 21988 ft 392 kts 340°
2026-05-05 08:19 42.21858 19.33862 22484 ft 394 kts 335°
2026-05-05 08:19 42.24261 19.32073 22955 ft 396 kts 326°
2026-05-05 08:19 42.26472 19.29836 23412 ft 398 kts 323°
2026-05-05 08:19 42.28667 19.27530 23854 ft 401 kts 322°
2026-05-05 08:20 42.30870 19.25198 24275 ft 404 kts 322°
2026-05-05 08:20 42.33083 19.22857 24740 ft 405 kts 322°
2026-05-05 08:20 42.35306 19.20512 25179 ft 406 kts 322°
2026-05-05 08:20 42.37540 19.18163 25592 ft 408 kts 322°
2026-05-05 08:21 42.39787 19.15804 26015 ft 409 kts 322°
2026-05-05 08:21 42.42038 19.13442 26402 ft 410 kts 322°
2026-05-05 08:21 42.44302 19.11068 26742 ft 413 kts 322°
2026-05-05 08:21 42.46577 19.08682 27130 ft 414 kts 322°
2026-05-05 08:22 42.48859 19.06288 27506 ft 415 kts 322°
2026-05-05 08:22 42.51147 19.03884 27845 ft 417 kts 322°
2026-05-05 08:22 42.53443 19.01470 28169 ft 419 kts 322°
2026-05-05 08:22 42.55751 18.99041 28459 ft 421 kts 322°
2026-05-05 08:23 42.58064 18.96602 28782 ft 422 kts 322°
2026-05-05 08:23 42.60383 18.94153 29108 ft 423 kts 322°
2026-05-05 08:23 42.62705 18.91702 29449 ft 423 kts 322°
2026-05-05 08:23 42.65022 18.89254 29894 ft 420 kts 322°
2026-05-05 08:24 42.67321 18.86824 30364 ft 417 kts 321°
2026-05-05 08:24 42.69606 18.84407 30770 ft 416 kts 321°
2026-05-05 08:24 42.71894 18.81983 31049 ft 418 kts 321°
2026-05-05 08:24 42.74185 18.79552 31349 ft 418 kts 321°
2026-05-05 08:25 42.76472 18.77122 31731 ft 416 kts 321°
2026-05-05 08:25 42.78743 18.74708 32104 ft 414 kts 321°
2026-05-05 08:25 42.81013 18.72293 32403 ft 414 kts 321°
2026-05-05 08:25 42.83282 18.69877 32703 ft 414 kts 321°
2026-05-05 08:26 42.85545 18.67467 33016 ft 413 kts 321°
2026-05-05 08:26 42.87802 18.65060 33354 ft 411 kts 321°
2026-05-05 08:26 42.90047 18.62662 33692 ft 409 kts 321°
2026-05-05 08:26 42.92288 18.60266 33964 ft 409 kts 321°
2026-05-05 08:27 42.94530 18.57867 34168 ft 410 kts 321°
2026-05-05 08:27 42.96748 18.55491 34396 ft 411 kts 321°
2026-05-05 08:27 42.98990 18.53088 34682 ft 409 kts 321°
2026-05-05 08:27 43.01227 18.50688 34949 ft 409 kts 321°
2026-05-05 08:28 43.03462 18.48287 35189 ft 408 kts 320°
2026-05-05 08:28 43.05692 18.45890 35460 ft 407 kts 320°
2026-05-05 08:28 43.07922 18.43490 35649 ft 408 kts 320°
2026-05-05 08:28 43.10150 18.41091 35861 ft 407 kts 320°
2026-05-05 08:29 43.12375 18.38691 36108 ft 407 kts 320°
2026-05-05 08:29 43.14608 18.36281 36107 ft 411 kts 320°
2026-05-05 08:30 43.21333 18.29012 36128 ft 408 kts 320°
2026-05-05 08:30 43.25774 18.24200 36127 ft 406 kts 320°
2026-05-05 08:31 43.30189 18.19403 36124 ft 404 kts 320°
2026-05-05 08:31 43.34587 18.14617 36128 ft 403 kts 320°
2026-05-05 08:32 43.38977 18.09831 36127 ft 403 kts 320°
2026-05-05 08:32 43.43373 18.05030 36127 ft 404 kts 320°
2026-05-05 08:33 43.47784 18.00203 36127 ft 407 kts 320°
2026-05-05 08:33 43.52223 17.95338 36122 ft 409 kts 319°
2026-05-05 08:34 43.56675 17.90449 36145 ft 409 kts 319°
2026-05-05 08:34 43.61150 17.85522 36112 ft 413 kts 319°
2026-05-05 08:35 43.65645 17.80564 36115 ft 415 kts 319°
2026-05-05 08:35 43.70156 17.75578 36110 ft 416 kts 319°
2026-05-05 08:36 43.74669 17.70585 36118 ft 415 kts 319°
2026-05-05 08:36 43.79175 17.65592 36089 ft 415 kts 319°
2026-05-05 08:37 43.82914 17.61432 36087 ft 414 kts 319°
2026-05-05 08:37 43.87402 17.56434 36076 ft 413 kts 319°
2026-05-05 08:38 43.92592 17.50643 36072 ft 411 kts 319°
2026-05-05 08:38 43.96314 17.46482 36081 ft 410 kts 319°
2026-05-05 08:39 44.00742 17.41522 36065 ft 409 kts 319°
2026-05-05 08:39 44.05136 17.36598 36069 ft 408 kts 319°
2026-05-05 08:40 44.09555 17.31622 36068 ft 409 kts 319°
2026-05-05 08:40 44.13993 17.26621 36066 ft 412 kts 319°
2026-05-05 08:41 44.18453 17.21585 36061 ft 414 kts 319°
2026-05-05 08:41 44.22938 17.16510 36055 ft 416 kts 319°
2026-05-05 08:42 44.27446 17.11398 36056 ft 419 kts 319°
2026-05-05 08:42 44.31979 17.06250 36043 ft 421 kts 319°
2026-05-05 08:43 44.36521 17.01081 36056 ft 421 kts 319°
2026-05-05 08:43 44.41056 16.95909 36044 ft 421 kts 319°
2026-05-05 08:44 44.45583 16.90734 36032 ft 420 kts 318°
2026-05-05 08:44 44.50104 16.85559 36035 ft 420 kts 318°
2026-05-05 08:45 44.54621 16.80377 36033 ft 419 kts 318°
2026-05-05 08:45 44.59126 16.75194 36048 ft 419 kts 318°
2026-05-05 08:46 44.63629 16.70004 36036 ft 419 kts 318°
2026-05-05 08:46 44.68127 16.64809 36048 ft 418 kts 318°
2026-05-05 08:47 44.72591 16.59645 36043 ft 418 kts 318°
2026-05-05 08:47 44.77115 16.54401 36047 ft 419 kts 318°
2026-05-05 08:48 44.81608 16.49179 36038 ft 419 kts 318°
2026-05-05 08:48 44.86072 16.43978 36038 ft 419 kts 318°
2026-05-05 08:49 44.90568 16.38731 36032 ft 420 kts 318°
2026-05-05 08:49 44.95070 16.33467 36037 ft 420 kts 318°
2026-05-05 08:50 44.99578 16.28185 36032 ft 421 kts 318°
2026-05-05 08:50 45.04089 16.22888 36025 ft 422 kts 317°
2026-05-05 08:51 45.08605 16.17574 36026 ft 422 kts 318°
2026-05-05 08:51 45.13119 16.12248 36032 ft 423 kts 317°
2026-05-05 08:52 45.17642 16.06903 36033 ft 424 kts 317°
2026-05-05 08:52 45.22172 16.01538 36028 ft 425 kts 317°
2026-05-05 08:53 45.26684 15.96184 36016 ft 426 kts 317°
2026-05-05 08:53 45.31227 15.90780 36018 ft 426 kts 317°
2026-05-05 08:54 45.35769 15.85367 36019 ft 426 kts 317°
2026-05-05 08:54 45.40302 15.79952 36015 ft 425 kts 317°
2026-05-05 08:55 45.44825 15.74535 36020 ft 425 kts 317°
2026-05-05 08:55 45.49346 15.69106 36018 ft 425 kts 317°
2026-05-05 08:56 45.53870 15.63669 36019 ft 425 kts 317°
2026-05-05 08:56 45.58382 15.58231 36015 ft 425 kts 317°
2026-05-05 08:57 45.62898 15.52778 36013 ft 425 kts 317°
2026-05-05 08:57 45.67410 15.47315 36013 ft 425 kts 317°
2026-05-05 08:58 45.71921 15.41843 36001 ft 425 kts 317°
2026-05-05 08:58 45.76434 15.36359 36004 ft 426 kts 317°
2026-05-05 08:59 45.81237 15.31362 36007 ft 428 kts 324°
2026-05-05 08:59 45.86248 15.26738 36000 ft 428 kts 324°
2026-05-05 09:00 45.91254 15.22098 35992 ft 428 kts 324°
2026-05-05 09:00 45.96234 15.17408 36006 ft 428 kts 323°
2026-05-05 09:01 46.01204 15.12687 35993 ft 428 kts 323°
2026-05-05 09:01 46.06180 15.07945 35991 ft 429 kts 323°
2026-05-05 09:02 46.11117 15.03232 35999 ft 429 kts 323°
2026-05-05 09:02 46.16091 14.98472 36005 ft 429 kts 323°
2026-05-05 09:03 46.21070 14.93699 36009 ft 430 kts 323°
2026-05-05 09:03 46.26056 14.88912 36006 ft 431 kts 323°
2026-05-05 09:04 46.31041 14.84111 35997 ft 431 kts 323°
2026-05-05 09:04 46.36030 14.79294 35999 ft 431 kts 323°
2026-05-05 09:05 46.41019 14.74467 36002 ft 431 kts 323°
2026-05-05 09:05 46.46014 14.69627 35994 ft 432 kts 323°
2026-05-05 09:06 46.51009 14.64771 35998 ft 432 kts 323°
2026-05-05 09:06 46.56009 14.59902 35985 ft 433 kts 323°
2026-05-05 09:07 46.61015 14.55032 35974 ft 433 kts 324°
2026-05-05 09:07 46.66116 14.50327 35973 ft 434 kts 325°
2026-05-05 09:08 46.71253 14.45681 35969 ft 435 kts 325°
2026-05-05 09:08 46.76388 14.41000 35961 ft 435 kts 325°
2026-05-05 09:09 46.81478 14.36327 35962 ft 435 kts 325°
2026-05-05 09:09 46.86593 14.31605 35967 ft 435 kts 325°
2026-05-05 09:10 46.91703 14.26878 35953 ft 435 kts 325°
2026-05-05 09:10 46.96816 14.22143 35962 ft 435 kts 325°
2026-05-05 09:11 47.01929 14.17392 35951 ft 436 kts 325°
2026-05-05 09:11 47.07047 14.12624 35946 ft 436 kts 325°
2026-05-05 09:12 47.12165 14.07848 35936 ft 436 kts 325°
2026-05-05 09:12 47.17281 14.03057 35936 ft 436 kts 325°
2026-05-05 09:13 47.22398 13.98263 35933 ft 436 kts 324°
2026-05-05 09:13 47.27508 13.93460 35931 ft 436 kts 325°
2026-05-05 09:14 47.32608 13.88657 35932 ft 435 kts 324°
2026-05-05 09:14 47.37706 13.83844 35910 ft 435 kts 324°
2026-05-05 09:15 47.42794 13.79030 35902 ft 434 kts 324°
2026-05-05 09:15 47.47878 13.74207 35895 ft 434 kts 324°
2026-05-05 09:16 47.52961 13.69376 35892 ft 434 kts 324°
2026-05-05 09:16 47.58043 13.64533 35889 ft 434 kts 324°
2026-05-05 09:17 47.63121 13.59681 35872 ft 434 kts 324°
2026-05-05 09:17 47.68193 13.54825 35889 ft 434 kts 324°
2026-05-05 09:18 47.73277 13.49947 35884 ft 435 kts 324°
2026-05-05 09:18 47.78358 13.45057 35880 ft 435 kts 324°
2026-05-05 09:19 47.83439 13.40158 35867 ft 436 kts 324°
2026-05-05 09:19 47.88531 13.35234 35860 ft 437 kts 324°
2026-05-05 09:20 47.93624 13.30301 35867 ft 437 kts 324°
2026-05-05 09:20 47.98722 13.25349 35864 ft 437 kts 324°
2026-05-05 09:21 48.03816 13.20390 35861 ft 437 kts 324°
2026-05-05 09:21 48.08908 13.15420 35863 ft 437 kts 324°
2026-05-05 09:22 48.13960 13.10476 35858 ft 437 kts 323°
2026-05-05 09:22 48.19043 13.05492 35863 ft 437 kts 323°
2026-05-05 09:23 48.24117 13.00486 35863 ft 436 kts 322°
2026-05-05 09:23 48.29083 12.95253 35864 ft 436 kts 321°
2026-05-05 09:24 48.34006 12.89933 35866 ft 436 kts 321°
2026-05-05 09:24 48.38939 12.84612 35863 ft 436 kts 321°
2026-05-05 09:25 48.43886 12.79297 35862 ft 437 kts 321°
2026-05-05 09:25 48.48829 12.73984 35857 ft 437 kts 321°
2026-05-05 09:26 48.53780 12.68654 35857 ft 437 kts 321°
2026-05-05 09:26 48.58722 12.63316 35860 ft 437 kts 321°
2026-05-05 09:27 48.63672 12.57958 35855 ft 438 kts 321°
2026-05-05 09:27 48.67785 12.53497 35852 ft 437 kts 321°
2026-05-05 09:28 48.72727 12.48122 35842 ft 437 kts 321°
2026-05-05 09:28 48.77664 12.42740 35854 ft 437 kts 321°
2026-05-05 09:29 48.82599 12.37348 35844 ft 437 kts 320°
2026-05-05 09:29 48.87524 12.31950 35848 ft 437 kts 320°
2026-05-05 09:30 48.92443 12.26545 35853 ft 436 kts 320°
2026-05-05 09:30 48.97352 12.21143 35853 ft 435 kts 320°
2026-05-05 09:31 49.02257 12.15727 35850 ft 435 kts 320°
2026-05-05 09:31 49.07154 12.10307 35853 ft 435 kts 320°
2026-05-05 09:32 49.12051 12.04872 35852 ft 435 kts 320°
2026-05-05 09:32 49.16945 11.99430 35852 ft 435 kts 320°
2026-05-05 09:33 49.21803 11.94013 35849 ft 435 kts 320°
2026-05-05 09:33 49.26691 11.88549 35854 ft 435 kts 319°
2026-05-05 09:34 49.31570 11.83083 35866 ft 435 kts 319°
2026-05-05 09:34 49.36454 11.77597 35855 ft 435 kts 319°
2026-05-05 09:35 49.41329 11.72105 35849 ft 435 kts 319°
2026-05-05 09:35 49.48648 11.63837 35858 ft 435 kts 319°
2026-05-05 09:36 49.53522 11.58314 35836 ft 435 kts 319°
2026-05-05 09:36 49.58226 11.52525 35834 ft 429 kts 310°
2026-05-05 09:37 49.62294 11.45829 35843 ft 428 kts 309°
2026-05-05 09:37 49.66406 11.39180 35851 ft 428 kts 310°
2026-05-05 09:38 49.70567 11.32585 35844 ft 429 kts 310°
2026-05-05 09:38 49.74729 11.25972 35851 ft 429 kts 310°
2026-05-05 09:39 49.78883 11.19327 35858 ft 430 kts 309°
2026-05-05 09:39 49.83020 11.12651 35867 ft 430 kts 309°
2026-05-05 09:40 49.87171 11.05945 35860 ft 431 kts 309°
2026-05-05 09:40 49.91322 10.99228 35866 ft 432 kts 309°
2026-05-05 09:41 49.95476 10.92497 35865 ft 432 kts 309°
2026-05-05 09:41 49.99633 10.85745 35874 ft 433 kts 309°
2026-05-05 09:42 50.03790 10.78966 35867 ft 433 kts 308°
2026-05-05 09:42 50.07912 10.72232 35862 ft 432 kts 308°
2026-05-05 09:43 50.12066 10.65466 35871 ft 432 kts 309°
2026-05-05 09:43 50.16237 10.58663 35873 ft 431 kts 308°
2026-05-05 09:44 50.20311 10.51907 35873 ft 430 kts 308°
2026-05-05 09:44 50.24417 10.45115 35880 ft 430 kts 309°
2026-05-05 09:45 50.28620 10.38437 35866 ft 431 kts 309°
2026-05-05 09:45 50.32815 10.31739 35884 ft 431 kts 309°
2026-05-05 09:46 50.36885 10.24884 35885 ft 427 kts 304°
2026-05-05 09:46 50.40770 10.17821 35888 ft 431 kts 309°
2026-05-05 09:47 50.45025 10.11197 35887 ft 430 kts 308°
2026-05-05 09:47 50.49062 10.04290 35887 ft 429 kts 307°
2026-05-05 09:48 50.53079 9.97346 35888 ft 429 kts 307°
2026-05-05 09:48 50.57009 9.90301 35887 ft 427 kts 304°
2026-05-05 09:49 50.60760 9.83056 35892 ft 427 kts 304°
2026-05-05 09:49 50.64545 9.75824 35887 ft 428 kts 304°
2026-05-05 09:50 50.68343 9.68580 35875 ft 429 kts 304°
2026-05-05 09:50 50.72118 9.61313 35883 ft 428 kts 304°
2026-05-05 09:51 50.75901 9.54052 35874 ft 428 kts 304°
2026-05-05 09:51 50.79696 9.46805 35885 ft 428 kts 304°
2026-05-05 09:52 50.83487 9.39539 35882 ft 428 kts 304°
2026-05-05 09:52 50.87277 9.32248 35870 ft 428 kts 304°
2026-05-05 09:53 50.91055 9.24955 35870 ft 428 kts 304°
2026-05-05 09:53 50.94827 9.17659 35887 ft 427 kts 304°
2026-05-05 09:54 50.98584 9.10366 35887 ft 426 kts 303°
2026-05-05 09:54 51.02328 9.03079 35889 ft 425 kts 303°
2026-05-05 09:55 51.06031 8.95849 35896 ft 424 kts 303°
2026-05-05 09:55 51.09777 8.88514 35885 ft 424 kts 303°
2026-05-05 09:56 51.13476 8.81209 35891 ft 422 kts 301°
2026-05-05 09:56 51.16602 8.73456 35888 ft 418 kts 296°
2026-05-05 09:57 51.19562 8.65497 35892 ft 417 kts 295°
2026-05-05 09:57 51.22530 8.57541 35895 ft 417 kts 295°
2026-05-05 09:58 51.25521 8.49606 35895 ft 417 kts 296°
2026-05-05 09:58 51.28522 8.41662 35892 ft 418 kts 296°
2026-05-05 09:59 51.31520 8.33710 35898 ft 418 kts 296°
2026-05-05 09:59 51.34516 8.25739 35892 ft 418 kts 296°
2026-05-05 10:00 51.37505 8.17763 35903 ft 418 kts 296°
2026-05-05 10:00 51.40492 8.09764 35905 ft 419 kts 296°
2026-05-05 10:01 51.43475 8.01752 35896 ft 419 kts 296°
2026-05-05 10:01 51.46453 7.93729 35880 ft 419 kts 295°
2026-05-05 10:02 51.49425 7.85698 35893 ft 418 kts 295°
2026-05-05 10:02 51.52386 7.77670 35887 ft 418 kts 295°
2026-05-05 10:03 51.55336 7.69645 35889 ft 417 kts 295°
2026-05-05 10:03 51.58278 7.61619 35888 ft 417 kts 295°
2026-05-05 10:04 51.61214 7.53582 35889 ft 416 kts 295°
2026-05-05 10:04 51.64140 7.45545 35888 ft 416 kts 295°
2026-05-05 10:05 51.67061 7.37502 35889 ft 416 kts 295°
2026-05-05 10:05 51.69979 7.29440 35890 ft 416 kts 295°
2026-05-05 10:06 51.72888 7.21378 35890 ft 416 kts 295°
2026-05-05 10:06 51.75794 7.13293 35896 ft 416 kts 295°
2026-05-05 10:07 51.78695 7.05199 35898 ft 417 kts 295°
2026-05-05 10:07 51.81597 6.97079 35901 ft 417 kts 295°
2026-05-05 10:08 51.84476 6.88992 35898 ft 418 kts 295°
2026-05-05 10:08 51.87377 6.80817 35904 ft 419 kts 295°
2026-05-05 10:09 51.90275 6.72627 35911 ft 420 kts 295°
2026-05-05 10:09 51.93171 6.64417 35917 ft 420 kts 295°
2026-05-05 10:10 51.96063 6.56191 35919 ft 420 kts 295°
2026-05-05 10:10 51.98949 6.47958 35921 ft 420 kts 295°
2026-05-05 10:11 52.01824 6.39727 35925 ft 419 kts 295°
2026-05-05 10:11 52.04690 6.31490 35930 ft 418 kts 295°
2026-05-05 10:12 52.07553 6.23245 35938 ft 419 kts 295°
2026-05-05 10:12 52.10413 6.14978 35942 ft 419 kts 295°
2026-05-05 10:13 52.13255 6.06725 35943 ft 417 kts 294°
2026-05-05 10:13 52.16086 5.98487 35943 ft 416 kts 294°
2026-05-05 10:14 52.18905 5.90255 35945 ft 416 kts 294°
2026-05-05 10:14 52.21238 5.83420 35941 ft 415 kts 294°
2026-05-05 10:15 52.24040 5.75187 35944 ft 415 kts 294°
2026-05-05 10:15 52.27283 5.65624 35952 ft 414 kts 294°
2026-05-05 10:16 52.29618 5.58716 35953 ft 415 kts 294°
2026-05-05 10:16 52.32400 5.50458 35960 ft 415 kts 294°
2026-05-05 10:17 52.35182 5.42175 35962 ft 416 kts 294°
2026-05-05 10:17 52.37966 5.33857 35968 ft 417 kts 294°
2026-05-05 10:18 52.40750 5.25509 35964 ft 419 kts 294°
2026-05-05 10:18 52.43540 5.17121 35964 ft 420 kts 294°
2026-05-05 10:19 52.46312 5.08757 35969 ft 422 kts 294°
2026-05-05 10:19 52.49105 5.00290 35964 ft 423 kts 294°
2026-05-05 10:20 52.51903 4.91796 35964 ft 423 kts 294°
2026-05-05 10:20 52.54766 4.83348 35966 ft 425 kts 298°
2026-05-05 10:21 52.58149 4.75357 35976 ft 427 kts 302°
2026-05-05 10:21 52.61623 4.67441 35965 ft 427 kts 301°
2026-05-05 10:22 52.65034 4.59455 35963 ft 426 kts 301°
2026-05-05 10:22 52.68418 4.51437 35974 ft 426 kts 301°
2026-05-05 10:23 52.71789 4.43407 35973 ft 426 kts 300°
2026-05-05 10:23 52.75118 4.35329 35970 ft 424 kts 297°
2026-05-05 10:24 52.78040 4.26901 35984 ft 422 kts 295°
2026-05-05 10:24 52.80860 4.18397 35982 ft 422 kts 295°
2026-05-05 10:25 52.83695 4.09903 35979 ft 422 kts 295°
2026-05-05 10:25 52.86539 4.01413 35988 ft 422 kts 295°
2026-05-05 10:26 52.89383 3.92920 35989 ft 422 kts 295°
2026-05-05 10:26 52.92200 3.84475 36003 ft 422 kts 295°
2026-05-05 10:27 52.95032 3.75955 36005 ft 422 kts 295°
2026-05-05 10:27 52.97866 3.67400 36011 ft 424 kts 295°
2026-05-05 10:28 53.00707 3.58808 36010 ft 425 kts 295°
2026-05-05 10:28 53.03559 3.50192 36011 ft 426 kts 296°
2026-05-05 10:29 53.06426 3.41546 36010 ft 428 kts 296°
2026-05-05 10:29 53.09282 3.32854 36005 ft 428 kts 294°
2026-05-05 10:30 53.11128 3.23541 36009 ft 423 kts 280°
2026-05-05 10:30 53.12347 3.13950 35990 ft 424 kts 279°
2026-05-05 10:31 53.13565 3.04417 35986 ft 424 kts 279°
2026-05-05 10:31 53.14816 2.94822 35993 ft 424 kts 280°
2026-05-05 10:32 53.16069 2.85231 35987 ft 424 kts 280°
2026-05-05 10:32 53.17315 2.75636 35987 ft 423 kts 280°
2026-05-05 10:33 53.18551 2.66051 35991 ft 423 kts 280°
2026-05-05 10:33 53.19779 2.56465 35992 ft 423 kts 280°
2026-05-05 10:34 53.21119 2.46922 35991 ft 423 kts 285°
2026-05-05 10:34 53.22982 2.37598 35998 ft 424 kts 287°
2026-05-05 10:35 53.24915 2.28303 35998 ft 424 kts 287°
2026-05-05 10:35 53.26809 2.18990 36000 ft 424 kts 286°
2026-05-05 10:36 53.28674 2.09640 36002 ft 424 kts 286°
2026-05-05 10:36 53.30524 2.00284 35999 ft 424 kts 286°
2026-05-05 10:37 53.32366 1.90905 35996 ft 425 kts 286°
2026-05-05 10:37 53.34203 1.81506 36000 ft 425 kts 286°
2026-05-05 10:38 53.36035 1.72093 36004 ft 426 kts 286°
2026-05-05 10:38 53.37852 1.62715 36000 ft 427 kts 286°
2026-05-05 10:39 53.39675 1.53253 36001 ft 427 kts 286°
2026-05-05 10:39 53.41495 1.43767 35999 ft 428 kts 286°
2026-05-05 10:40 53.43308 1.34263 35999 ft 428 kts 286°
2026-05-05 10:40 53.45115 1.24747 36001 ft 428 kts 285°
2026-05-05 10:41 53.46914 1.15216 35999 ft 428 kts 286°
2026-05-05 10:41 53.48708 1.05684 35998 ft 428 kts 285°
2026-05-05 10:42 53.51380 0.91372 36001 ft 428 kts 285°
2026-05-05 10:43 53.53149 0.81835 35998 ft 428 kts 285°
2026-05-05 10:43 53.54911 0.72291 36010 ft 427 kts 285°
2026-05-05 10:44 53.56662 0.62763 36011 ft 427 kts 285°
2026-05-05 10:44 53.58407 0.53210 36004 ft 427 kts 285°
2026-05-05 10:45 53.60144 0.43651 35997 ft 427 kts 285°
2026-05-05 10:45 53.61875 0.34087 36002 ft 427 kts 285°
2026-05-05 10:46 53.63596 0.24519 36007 ft 426 kts 285°
2026-05-05 10:46 53.65307 0.14951 36009 ft 426 kts 285°
2026-05-05 10:47 53.67011 0.05385 36011 ft 426 kts 285°
2026-05-05 10:47 53.68706 -0.04180 36003 ft 426 kts 285°
2026-05-05 10:48 53.71069 -0.13255 36013 ft 428 kts 302°
2026-05-05 10:48 53.74696 -0.21253 36007 ft 430 kts 307°
2026-05-05 10:49 53.78432 -0.29162 36006 ft 431 kts 307°
2026-05-05 10:49 53.82142 -0.37147 36002 ft 432 kts 307°
2026-05-05 10:50 53.85834 -0.45192 35997 ft 433 kts 306°
2026-05-05 10:50 53.89523 -0.53272 35991 ft 433 kts 306°
2026-05-05 10:51 53.93209 -0.61371 35989 ft 434 kts 306°
2026-05-05 10:51 53.96886 -0.69471 36002 ft 433 kts 306°
2026-05-05 10:52 54.00562 -0.77588 36000 ft 433 kts 306°
2026-05-05 10:52 54.04779 -0.84810 36001 ft 429 kts 322°
2026-05-05 10:53 54.09860 -0.90035 36006 ft 427 kts 328°
2026-05-05 10:53 54.15024 -0.95070 36010 ft 428 kts 328°
2026-05-05 10:54 54.20184 -1.00167 36021 ft 429 kts 327°
2026-05-05 10:54 54.25340 -1.05322 36021 ft 430 kts 327°
2026-05-05 10:55 54.30500 -1.10517 36019 ft 431 kts 327°
2026-05-05 10:55 54.35673 -1.15744 36015 ft 432 kts 327°
2026-05-05 10:56 54.40850 -1.20991 36023 ft 432 kts 327°
2026-05-05 10:56 54.46031 -1.26254 36014 ft 433 kts 327°
2026-05-05 10:57 54.51139 -1.31459 35661 ft 420 kts 327°
2026-05-05 10:57 54.53630 -1.34000 35320 ft 414 kts 327°
2026-05-05 10:57 54.56101 -1.36526 34950 ft 411 kts 327°
2026-05-05 10:57 54.58548 -1.39033 34580 ft 408 kts 327°
2026-05-05 10:58 54.60975 -1.41525 34203 ft 405 kts 327°
2026-05-05 10:58 54.63390 -1.44006 33825 ft 402 kts 327°
2026-05-05 10:58 54.65783 -1.46467 33459 ft 399 kts 327°
2026-05-05 10:58 54.68158 -1.48914 33083 ft 396 kts 327°
2026-05-05 10:59 54.70518 -1.51346 32704 ft 393 kts 327°
2026-05-05 10:59 54.72860 -1.53763 32338 ft 391 kts 326°
2026-05-05 10:59 54.75187 -1.56169 31986 ft 388 kts 326°
2026-05-05 10:59 54.77464 -1.58528 31628 ft 386 kts 326°
2026-05-05 11:00 54.79758 -1.60909 31277 ft 383 kts 326°
2026-05-05 11:00 54.82035 -1.63273 30921 ft 380 kts 326°
2026-05-05 11:00 54.84296 -1.65624 30571 ft 378 kts 326°
2026-05-05 11:00 54.86542 -1.67963 30226 ft 376 kts 326°
2026-05-05 11:01 54.88776 -1.70292 29877 ft 373 kts 326°
2026-05-05 11:01 54.90994 -1.72606 29527 ft 370 kts 326°
2026-05-05 11:01 54.93193 -1.74905 29165 ft 368 kts 326°
2026-05-05 11:01 54.95375 -1.77189 28811 ft 365 kts 326°
2026-05-05 11:02 54.97550 -1.79468 28454 ft 363 kts 326°
2026-05-05 11:02 54.99706 -1.81729 28096 ft 361 kts 326°
2026-05-05 11:02 55.01849 -1.83980 27743 ft 358 kts 326°
2026-05-05 11:02 55.03975 -1.86217 27390 ft 356 kts 326°
2026-05-05 11:03 55.06089 -1.88444 27041 ft 354 kts 326°
2026-05-05 11:03 55.08189 -1.90658 26687 ft 352 kts 326°
2026-05-05 11:03 55.10274 -1.92858 26342 ft 349 kts 326°
2026-05-05 11:03 55.12203 -1.95363 25950 ft 343 kts 310°
2026-05-05 11:04 55.13573 -1.98729 25513 ft 339 kts 298°
2026-05-05 11:04 55.14763 -2.02301 25040 ft 341 kts 297°
2026-05-05 11:04 55.15928 -2.05916 24564 ft 342 kts 297°
2026-05-05 11:04 55.16700 -2.08324 24250 ft 343 kts 297°
2026-05-05 11:05 55.17872 -2.11972 23773 ft 344 kts 297°
2026-05-05 11:05 55.19054 -2.15626 23292 ft 345 kts 298°
2026-05-05 11:05 55.20645 -2.20523 22644 ft 347 kts 298°
2026-05-05 11:05 55.21436 -2.22952 22327 ft 347 kts 298°
2026-05-05 11:06 55.22633 -2.26626 21839 ft 347 kts 298°
2026-05-05 11:06 55.23830 -2.30300 21359 ft 347 kts 298°
2026-05-05 11:06 55.25026 -2.33976 20869 ft 347 kts 298°
2026-05-05 11:06 55.26221 -2.37649 20379 ft 347 kts 298°
2026-05-05 11:07 55.27416 -2.41326 19906 ft 347 kts 298°
2026-05-05 11:07 55.28607 -2.44996 19418 ft 346 kts 298°
2026-05-05 11:07 55.29795 -2.48665 18942 ft 345 kts 298°
2026-05-05 11:07 55.30978 -2.52325 18466 ft 344 kts 298°
2026-05-05 11:08 55.32157 -2.55973 17982 ft 343 kts 298°
2026-05-05 11:08 55.33329 -2.59610 17517 ft 342 kts 298°
2026-05-05 11:08 55.34496 -2.63237 17032 ft 341 kts 298°
2026-05-05 11:08 55.35657 -2.66851 16561 ft 339 kts 298°
2026-05-05 11:09 55.36812 -2.70452 16100 ft 338 kts 298°
2026-05-05 11:09 55.37964 -2.74044 15628 ft 336 kts 298°
2026-05-05 11:09 55.39108 -2.77624 15159 ft 335 kts 298°
2026-05-05 11:09 55.40248 -2.81192 14691 ft 334 kts 298°
2026-05-05 11:10 55.41380 -2.84739 14229 ft 332 kts 298°
2026-05-05 11:10 55.42505 -2.88268 13765 ft 330 kts 298°
2026-05-05 11:10 55.43623 -2.91781 13313 ft 324 kts 298°
2026-05-05 11:10 55.44704 -2.95185 12864 ft 313 kts 298°
2026-05-05 11:11 55.45751 -2.98470 12561 ft 300 kts 298°
2026-05-05 11:11 55.46852 -3.01501 12297 ft 288 kts 306°
2026-05-05 11:11 55.48084 -3.04209 12063 ft 281 kts 308°
2026-05-05 11:11 55.49339 -3.06828 11810 ft 278 kts 309°
2026-05-05 11:12 55.50579 -3.09410 11562 ft 274 kts 309°
2026-05-05 11:12 55.51803 -3.11975 11307 ft 273 kts 309°
2026-05-05 11:12 55.53015 -3.14536 11061 ft 271 kts 309°
2026-05-05 11:12 55.54199 -3.17054 10811 ft 269 kts 309°
2026-05-05 11:13 55.55392 -3.19606 10560 ft 270 kts 309°
2026-05-05 11:13 55.56589 -3.22176 10332 ft 271 kts 309°
2026-05-05 11:13 55.57789 -3.24756 10074 ft 271 kts 308°
2026-05-05 11:13 55.58981 -3.27331 9821 ft 269 kts 309°
2026-05-05 11:14 55.60161 -3.29883 9587 ft 266 kts 309°
2026-05-05 11:14 55.61330 -3.32416 9323 ft 266 kts 309°
2026-05-05 11:14 55.62494 -3.34945 9060 ft 265 kts 309°
2026-05-05 11:14 55.63655 -3.37468 8809 ft 263 kts 309°
2026-05-05 11:15 55.64808 -3.39975 8555 ft 262 kts 309°
2026-05-05 11:15 55.65957 -3.42474 8313 ft 261 kts 309°
2026-05-05 11:15 55.67100 -3.44965 8051 ft 260 kts 309°
2026-05-05 11:15 55.68235 -3.47442 7812 ft 258 kts 309°
2026-05-05 11:16 55.69365 -3.49910 7571 ft 257 kts 309°
2026-05-05 11:16 55.70490 -3.52368 7317 ft 257 kts 309°
2026-05-05 11:16 55.71612 -3.54826 7064 ft 256 kts 309°
2026-05-05 11:16 55.72728 -3.57272 6854 ft 255 kts 309°
2026-05-05 11:17 55.73844 -3.59721 6568 ft 255 kts 309°
2026-05-05 11:17 55.74961 -3.62169 6268 ft 255 kts 309°
2026-05-05 11:17 55.76076 -3.64614 5964 ft 256 kts 309°
2026-05-05 11:17 55.77181 -3.67044 5823 ft 245 kts 309°
2026-05-05 11:18 55.78220 -3.69332 5725 ft 230 kts 309°
2026-05-05 11:18 55.79192 -3.71471 5630 ft 215 kts 309°
2026-05-05 11:18 55.80179 -3.73327 5482 ft 200 kts 328°
2026-05-05 11:18 55.81453 -3.73721 5322 ft 183 kts 16°
2026-05-05 11:19 55.82427 -3.72468 5108 ft 168 kts 45°
2026-05-05 11:19 55.83204 -3.70940 4669 ft 166 kts 48°
2026-05-05 11:19 55.83931 -3.69340 4250 ft 165 kts 49°
2026-05-05 11:19 55.84618 -3.67750 3864 ft 159 kts 52°
2026-05-05 11:20 55.85216 -3.66173 3633 ft 150 kts 55°
2026-05-05 11:20 55.85766 -3.64612 3422 ft 148 kts 56°
2026-05-05 11:20 55.86309 -3.63027 3215 ft 150 kts 57°
2026-05-05 11:20 55.86848 -3.61436 3022 ft 149 kts 57°
2026-05-05 11:21 55.87381 -3.59850 2815 ft 149 kts 57°
2026-05-05 11:21 55.87904 -3.58296 2629 ft 148 kts 57°
2026-05-05 11:21 55.88424 -3.56748 2420 ft 142 kts 58°
2026-05-05 11:21 55.88936 -3.55229 2243 ft 141 kts 58°
2026-05-05 11:22 55.89434 -3.53743 2052 ft 142 kts 58°
2026-05-05 11:22 55.89937 -3.52244 1863 ft 140 kts 58°
2026-05-05 11:22 55.90435 -3.50769 1685 ft 139 kts 59°
2026-05-05 11:22 55.90930 -3.49301 1503 ft 138 kts 59°
2026-05-05 11:23 55.91426 -3.47831 1320 ft 138 kts 60°
2026-05-05 11:23 55.91923 -3.46353 1139 ft 139 kts 59°
2026-05-05 11:23 55.92421 -3.44877 941 ft 138 kts 59°
2026-05-05 11:23 55.92912 -3.43422 754 ft 136 kts 59°
2026-05-05 11:24 55.93406 -3.41961 581 ft 140 kts 59°
2026-05-05 11:24 55.93904 -3.40484 377 ft 139 kts 59°
2026-05-05 11:24 55.94404 -3.39019 148 ft 138 kts 59°
2026-05-05 11:24 55.94866 -3.37647 111 ft 114 kts 59°
2026-05-05 11:25 55.95162 -3.36761 110 ft 52 kts 59°
2026-05-05 11:25 55.95256 -3.36478 110 ft 18 kts 81°
2026-05-05 11:25 55.95185 -3.36342 113 ft 7 kts 148°
2026-05-05 11:25 55.95177 -3.36332 114 ft 1 kts 148°
2026-05-05 11:26 55.95171 -3.36325 115 ft 1 kts 148°
2026-05-05 11:26 55.95153 -3.36299 113 ft 7 kts 133°
2026-05-05 11:26 55.95127 -3.36184 111 ft 11 kts 107°
2026-05-05 11:26 55.95103 -3.36046 115 ft 11 kts 108°
2026-05-05 11:27 55.95077 -3.35938 115 ft 9 kts 116°
2026-05-05 11:27 55.95053 -3.35852 115 ft 6 kts 120°
2026-05-05 11:27 55.95015 -3.35832 112 ft 7 kts 189°
2026-05-05 11:27 55.94968 -3.35860 112 ft 8 kts 200°
2026-05-05 11:28 55.94945 -3.35940 113 ft 8 kts 256°
2026-05-05 11:28 55.94940 -3.35977 112 ft 2 kts 256°
2026-05-05 11:28 55.94938 -3.35986 115 ft 0 kts 255°